Location: Schommer Observatory
(40.5200°N, 74.4500°W)
Time: 21:09:41
(UTC-05:00)

ISS - Pass Details

Date: 16 November 2017
Orbit: 402 x 407 km, 51.6° (Epoch: 22 November)

Event Time Altitude Azimuth Distance (km) Brightness Sun altitude
Exits shadow 04:16:11 16° 70° (ENE) 1,134 -0.9 -28.3°
Drops below altitude 10° 04:17:11 10° 83° (E) 1,452 -0.1 -28.1°
Sets 04:19:30 0° 97° (E) 2,308 1.3 -27.7°
